This is the latest recevied weather packets stored in our database for station/object N9CQL. If no packets are shown the sender has not sent any weather packets the latest 10 day(s).
| Time | Temp. | Humidity | Pressure | Rain* | Wind** | Luminosity | Snow |
|---|---|---|---|---|---|---|---|
| 1777603094 | 5° C | 92% | 1014.6 hPa | 6.1 mm | - | 0 W/m² | - |
| 1777602788 | 5° C | 92% | 1014.4 hPa | 4.83 mm | - | 0 W/m² | - |
| 1777602484 | 5° C | 91% | 1014.5 hPa | 1.78 mm | - | 0 W/m² | - |
| 1777602180 | 5° C | 91% | 1014.3 hPa | 1.27 mm | - | 0 W/m² | - |
| 1777601875 | 5° C | 91% | 1014.3 hPa | 4.32 mm | - | 0 W/m² | - |
| 1777601571 | 5° C | 90% | 1013.7 hPa | 4.83 mm | - | 0 W/m² | - |
| 1777601266 | 5° C | 90% | 1014 hPa | 6.1 mm | - | 0 W/m² | - |
| 1777600964 | 5° C | 90% | 1014.1 hPa | 4.83 mm | - | 0 W/m² | - |
| 1777600659 | 5° C | 89% | 1014.1 hPa | 6.1 mm | - | 0 W/m² | - |
| 1777600356 | 5° C | 89% | 1013.7 hPa | 6.1 mm | - | 0 W/m² | - |
| 1777600052 | 5° C | 89% | 1013.9 hPa | 4.32 mm | - | 0 W/m² | - |
| 1777599748 | 5.56° C | 89% | 1013.6 hPa | 3.05 mm | - | 0 W/m² | - |
| 1777599443 | 5° C | 88% | 1013.9 hPa | 1.78 mm | - | 0 W/m² | - |
| 1777599141 | 5° C | 89% | 1013.4 hPa | 0 mm | - | 0 W/m² | - |
| 1777598839 | 5° C | 89% | 1013.6 hPa | 0 mm | - | 0 W/m² | - |
| 1777598534 | 5.56° C | 89% | 1013.3 hPa | 0 mm | - | 0 W/m² | - |
| 1777598229 | 5° C | 89% | 1013.2 hPa | 0 mm | - | 0 W/m² | - |
| 1777597927 | 5° C | 89% | 1013.4 hPa | 0 mm | - | 0 W/m² | - |
| 1777597621 | 5° C | 89% | 1013.6 hPa | 0 mm | - | 0 W/m² | - |
| 1777597316 | 5.56° C | 89% | 1013.4 hPa | 0 mm | - | 0 W/m² | - |
| 1777597012 | 5.56° C | 89% | 1013.4 hPa | 0 mm | - | 0 W/m² | - |
| 1777596709 | 5.56° C | 89% | 1013.6 hPa | 0 mm | - | 0 W/m² | - |
| 1777596406 | 5.56° C | 89% | 1013.5 hPa | 0 mm | - | 0 W/m² | - |
| 1777596103 | 5.56° C | 89% | 1013.3 hPa | 1.27 mm | - | 0 W/m² | - |
| 1777595799 | 5.56° C | 89% | 1013.5 hPa | 1.27 mm | - | 1 W/m² | - |
* Rain latest hour (hover to see other rain measurements)
** Current wind speed in m/s (hover to see current wind gust speed)